[[{"header":{"parameterUnit":"m.s-1","parameterCategory":1,"la1":30.2991,"la2":30.254,"lo1":-89.0895,"lo2":-89.0444,"dy":0.0017,"dx":0.0017,"nx":28,"ny":28,"refTime":"2024-03-13T21:00:00:Z","depth":0,"parameterNumber":2,"parameterNumberName":"U-component_of_WINDS"},"data":[0,0,0,0,0,0,0,0,0,0,0,0,0,0,0,0,0,0,0,0,0,0,0,0,0,0,0,0,0,0,0,0,0,0,0,0,0,0,0,0,0,0,0,0,0,0,0,0,0,0,0,0,0,0,0,0,0,0,-3.4393,-3.4393,0,-3.4399,-3.4399,-3.4399,-3.4334,-3.4332,-3.433,-3.4328,-3.4334,-3.4336,-3.4338,0,0,0,0,0,0,0,0,0,0,0,0,0,-3.4326,-3.4328,-3.4393,-3.4393,-3.4393,-3.4399,-3.4399,-3.4399,-3.4334,-3.4332,-3.433,-3.4327,-3.4334,-3.4336,-3.4338,0,0,0,0,0,0,0,0,0,0,0,0,0,-3.4346,-3.4328,-3.4393,-3.4361,-3.4359,-3.4399,-3.4399,-3.4399,-3.4334,-3.4332,-3.4329,-3.4326,-3.4333,-3.4336,-3.4339,-3.441,0,0,-3.4347,-3.4348,0,0,0,0,0,0,0,0,-3.4345,-3.4349,-3.4366,-3.4364,-3.4361,-3.4363,-3.4378,-3.4403,-3.4335,-3.4344,-3.4328,-3.4325,-3.4346,-3.4348,-3.4355,-3.441,-3.441,-3.4347,-3.4349,-3.435,-3.4351,0,0,0,0,0,0,0,-3.4344,-3.4348,-3.4395,-3.4366,-3.4363,-3.4347,-3.4347,-3.4382,-3.436,-3.4343,-3.4338,-3.4339,-3.4344,-3.4352,-3.4354,-3.441,-3.4347,-3.435,-3.4351,-3.4352,-3.4524,-3.4527,0,0,0,0,0,0,-3.4347,-3.4347,-3.4395,-3.4396,-3.4346,-3.4351,-3.435,-3.4365,-3.4359,-3.4356,-3.4342,-3.4336,-3.4349,-3.4351,-3.4354,-3.4436,-3.435,-3.4353,-3.4354,-3.4521,-3.4525,-3.4528,0,0,0,0,0,0,-3.4345,-3.4351,-3.4395,-3.437,-3.4374,-3.4355,-3.4371,-3.4366,-3.4374,-3.4359,-3.4354,-3.4354,-3.4347,-3.435,-3.4396,-3.4436,-3.4354,-3.4356,-3.4518,-3.4522,-3.4526,-3.4602,0,0,0,0,0,0,-3.4344,-3.4351,-3.4378,-3.4371,-3.4376,-3.4437,-3.4374,-3.4368,-3.4379,-3.4372,-3.4369,-3.4366,-3.4345,-3.4392,-3.4399,-3.4438,-3.4359,-3.4514,-3.452,-3.4525,-3.4595,-3.4608,-3.4619,0,0,0,0,0,-3.4342,-3.4399,-3.438,-3.4386,-3.4409,-3.4439,-3.4442,-3.4416,-3.4383,-3.4409,-3.4399,-3.4366,-3.4431,-3.4398,-3.4404,-3.4445,-3.4511,-3.4518,-3.4524,-3.459,-3.4605,-3.4618,0,0,0,0,0,0,-3.4411,-3.4398,-3.4376,-3.4433,-3.4438,-3.4428,-3.446,-3.4434,-3.4448,-3.4441,-3.4409,-3.4409,-3.446,-3.4457,-3.4421,-3.4513,-3.4465,-3.4473,-3.4513,-3.4527,-3.4539,-3.4537,-3.4361,0,0,0,0,0,-3.4433,-3.4458,-3.4446,-3.4497,-3.4501,-3.4481,-3.4493,-3.4473,-3.4477,-3.4478,-3.4472,-3.4477,-3.4498,-3.4513,-3.4532,-3.4596,-3.4594,-3.4627,-3.4638,-3.4648,-3.4655,-3.4688,-3.4702,-3.4549,-3.4549,-3.4549,0,0,-3.4478,-3.4474,-3.4492,-3.4511,-3.4512,-3.454,-3.4483,-3.4514,-3.4534,-3.4483,-3.4525,-3.4521,-3.4525,-3.458,-3.4604,-3.4579,-3.4697,-3.4656,-3.4664,-3.4666,-3.4696,-3.4711,-3.4724,-3.4554,-3.4553,-3.4552,0,0,-3.4574,-3.4574,-3.4617,-3.462,-3.4623,-3.4609,-3.462,-3.4614,-3.4609,-3.4652,-3.4614,-3.4638,-3.4676,-3.4679,-3.4686,-3.4786,-3.4756,-3.4793,-3.4853,-3.4886,-3.4898,-3.4908,-3.4943,-3.4956,-3.4801,-3.4801,-3.4801,0,-3.463,-3.4669,-3.4642,-3.4676,-3.4685,-3.4641,-3.4684,-3.4688,-3.4698,-3.4705,-3.4678,-3.4724,-3.4723,-3.4779,-3.4803,-3.481,-3.4821,-3.4792,-3.4898,-3.4909,-3.4918,-3.4951,-3.4964,-3.4805,-3.4805,-3.4804,-3.4804,0,-3.4738,-3.4766,-3.48,-3.481,-3.4823,-3.4862,-3.484,-3.4857,-3.4837,-3.4827,-3.487,-3.4868,-3.4886,-3.4898,-3.4878,-3.4951,-3.4935,-3.4904,-3.4854,-3.4938,-3.4968,-3.498,-3.4812,-3.481,-3.4809,-3.4808,0,0,-3.4876,-3.4871,-3.4884,-3.4887,-3.4888,-3.4909,-3.4946,-3.4963,-3.4978,-3.4987,-3.5016,-3.505,-3.5021,-3.5029,-3.501,-3.5039,-3.5117,-3.5004,-3.5003,-3.5024,-3.5196,-3.5218,-3.5233,-3.5098,-3.51,-3.5102,-3.5195,0,-3.4968,-3.503,-3.5007,-3.507,-3.5096,-3.5055,-3.5087,-3.5091,-3.5083,-3.5104,-3.5095,-3.5118,-3.5079,-3.5084,-3.5111,-3.5102,-3.5151,-3.5095,-3.5124,-3.5126,-3.5123,-3.5249,-3.5272,-3.536,-3.5207,-3.5209,-3.521,0,-3.5084,-3.5097,-3.5163,-3.5159,-3.5169,-3.5198,-3.5212,-3.5233,-3.5237,-3.5229,-3.5239,-3.5213,-3.5249,-3.5202,-3.5251,-3.5213,-3.5224,-3.5222,-3.5225,-3.5225,-3.5172,-3.5251,-3.5388,-3.54,-3.5228,-3.5227,-3.5226,0,-3.5177,-3.5211,-3.5254,-3.5259,-3.5257,-3.5278,-3.5278,-3.5279,-3.5291,-3.5304,-3.5311,-3.5329,-3.5338,-3.5352,-3.5332,-3.5299,-3.5384,-3.5334,-3.5377,-3.5378,-3.5395,-3.5394,-3.5534,-3.5406,-3.5405,-3.5405,-3.5405,0,-3.5282,-3.5323,-3.5296,-3.5323,-3.5368,-3.5342,-3.5388,-3.5384,-3.5386,-3.5411,-3.5378,-3.5402,-3.5375,-3.5398,-3.5383,-3.5425,-3.543,-3.5424,-3.5419,-3.5426,-3.5427,-3.5431,-3.5424,-3.5409,-3.5408,-3.5407,-3.5407,0,-3.5392,-3.5375,-3.542,-3.5414,-3.5414,-3.5448,-3.5442,-3.5467,-3.5457,-3.549,-3.5496,-3.548,-3.5504,-3.5487,-3.5511,-3.5501,-3.5557,-3.5544,-3.5555,-3.5551,-3.5595,-3.559,-3.5741,-3.5759,-3.5621,-3.5622,-3.5623,0,-3.5459,-3.549,-3.5487,-3.5502,-3.5504,-3.5528,-3.554,-3.5516,-3.553,-3.5538,-3.5562,-3.5583,-3.5599,-3.564,-3.5631,-3.565,-3.5636,-3.5688,-3.5639,-3.5645,-3.5635,-3.5633,-3.5636,-3.5697,-3.5699,-3.57,-3.5701,0,-3.5579,-3.557,-3.5588,-3.5605,-3.562,-3.5632,-3.5641,-3.5655,-3.563,-3.5648,-3.5673,-3.5685,-3.571,-3.5732,-3.5747,-3.5747,-3.5721,-3.5717,-3.5728,-3.5734,-3.5739,-3.5736,-3.558,-3.5713,-3.5712,-3.5711,-3.5711,-3.571,-3.5669,-3.5694,-3.5697,-3.5719,-3.5723,-3.5733,-3.5755,-3.5748,-3.5768,-3.5786,-3.5772,-3.5801,-3.5805,-3.5823,-3.5827,-3.5849,-3.5828,-3.5844,-3.5848,-3.5852,-3.5857,-3.5737,-3.5852,-3.5852,-3.5852,-3.5851,-3.5851,0,-3.5786,-3.5786,-3.5807,-3.582,-3.5838,-3.5812,-3.5821,-3.5837,-3.5863,-3.5869,-3.5886,-3.5914,-3.5935,-3.5928,-3.5947,-3.5967,-3.5955,-3.5973,-3.597,-3.597,-3.5876,-3.5864,-3.5982,-3.5982,-3.5982,-3.5982,-3.5982,-3.5982,-3.5849,-3.5891,-3.5882,-3.5926,-3.5926,-3.5954,-3.5961,-3.597,-3.5974,-3.6007,-3.6025,-3.602,-3.6021,-3.604,-3.6059,-3.6056,-3.6064,-3.6086,-3.6079,-3.599,-3.5977,-3.5965,-3.5953,-3.6088,-3.6089,-3.6172,-3.6173,-3.6173]},{"header":{"parameterUnit":"m.s-1","parameterCategory":1,"la1":30.2991,"la2":30.254,"lo1":-89.0895,"lo2":-89.0444,"dy":0.0017,"dx":0.0017,"nx":28,"ny":28,"refTime":"2024-03-13T21:00:00:Z","depth":0,"parameterNumber":3,"parameterNumberName":"V-component_of_WINDS"},"data":[0,0,0,0,0,0,0,0,0,0,0,0,0,0,0,0,0,0,0,0,0,0,0,0,0,0,0,0,0,0,0,0,0,0,0,0,0,0,0,0,0,0,0,0,0,0,0,0,0,0,0,0,0,0,0,0,0,0,2.1867,2.1867,0,2.1893,2.1893,2.1893,2.1916,2.1916,2.1916,2.1916,2.1941,2.1941,2.1942,0,0,0,0,0,0,0,0,0,0,0,0,0,2.1836,2.1836,2.1867,2.1867,2.1867,2.1893,2.1893,2.1893,2.1916,2.1916,2.1916,2.1917,2.1941,2.1941,2.1942,0,0,0,0,0,0,0,0,0,0,0,0,0,2.1854,2.1836,2.1867,2.1882,2.1883,2.1892,2.1893,2.1893,2.1916,2.1916,2.1916,2.1917,2.194,2.1941,2.1942,2.1938,0,0,2.1944,2.1944,0,0,0,0,0,0,0,0,2.1853,2.1855,2.1879,2.1881,2.1882,2.1901,2.1891,2.1908,2.1915,2.1903,2.1916,2.1917,2.1927,2.1929,2.1933,2.1939,2.194,2.1944,2.1944,2.1944,2.1944,0,0,0,0,0,0,0,2.1852,2.1854,2.1877,2.1879,2.1881,2.1887,2.189,2.1894,2.1913,2.1904,2.1906,2.1909,2.1928,2.1932,2.1934,2.194,2.1944,2.1944,2.1944,2.1945,2.1946,2.1945,0,0,0,0,0,0,2.1848,2.1853,2.1876,2.1878,2.1868,2.1887,2.189,2.1895,2.1913,2.1916,2.1908,2.191,2.1931,2.1933,2.1935,2.1932,2.1944,2.1945,2.1945,2.1946,2.1946,2.1945,0,0,0,0,0,0,2.1847,2.185,2.1875,2.1866,2.1869,2.1887,2.1892,2.1895,2.1899,2.1916,2.1919,2.1909,2.1931,2.1934,2.1937,2.1933,2.1945,2.1946,2.1946,2.1946,2.1945,2.1926,0,0,0,0,0,0,2.1846,2.185,2.1848,2.1866,2.187,2.1877,2.1892,2.1895,2.19,2.1902,2.1918,2.192,2.1932,2.1936,2.1938,2.1934,2.1946,2.1947,2.1946,2.1946,2.1927,2.1925,2.1923,0,0,0,0,0,2.1845,2.1841,2.1848,2.1851,2.1869,2.1877,2.1879,2.1893,2.19,2.1899,2.191,2.192,2.1933,2.1936,2.1938,2.1935,2.1947,2.1946,2.1946,2.1928,2.1926,2.1924,0,0,0,0,0,0,2.1822,2.1844,2.1852,2.1853,2.1863,2.1881,2.188,2.189,2.1898,2.1899,2.1916,2.1919,2.1921,2.1928,2.1931,2.1933,2.1942,2.1941,2.1928,2.1926,2.1924,2.1922,2.1947,0,0,0,0,0,2.1817,2.1823,2.1841,2.1841,2.1845,2.1862,2.1866,2.1876,2.1887,2.1891,2.1902,2.1912,2.1919,2.1922,2.1929,2.1929,2.1933,2.1927,2.1925,2.1924,2.1923,2.1925,2.1923,2.1943,2.1943,2.1943,0,0,2.1807,2.1819,2.1822,2.1836,2.1845,2.1851,2.1865,2.187,2.1874,2.1891,2.1896,2.1905,2.1916,2.1918,2.192,2.1925,2.1919,2.1923,2.1921,2.1922,2.1924,2.1922,2.192,2.1942,2.1942,2.1942,0,0,2.1791,2.1801,2.1802,2.1811,2.1826,2.1837,2.1837,2.1854,2.186,2.1865,2.1879,2.1884,2.1895,2.1903,2.1909,2.1898,2.1908,2.19,2.1889,2.1891,2.1889,2.1888,2.1885,2.1883,2.1899,2.1899,2.1899,0,2.1776,2.1785,2.1801,2.1806,2.1812,2.183,2.1831,2.1839,2.1854,2.1858,2.1864,2.1879,2.1888,2.1893,2.189,2.1894,2.1895,2.1898,2.1888,2.1887,2.1886,2.1883,2.1882,2.1898,2.1898,2.1898,2.1898,0,2.1767,2.1773,2.1773,2.1788,2.1795,2.1797,2.1814,2.1818,2.1828,2.1839,2.1844,2.1856,2.1866,2.1868,2.1877,2.1875,2.1877,2.1885,2.1895,2.1883,2.1881,2.188,2.1897,2.1897,2.1897,2.1898,0,0,2.1737,2.1762,2.1762,2.177,2.1787,2.1792,2.1796,2.1807,2.1811,2.1821,2.1825,2.1835,2.1843,2.1849,2.186,2.1861,2.1853,2.1869,2.1869,2.1866,2.1852,2.1846,2.1845,2.1859,2.1859,2.1859,2.1851,0,2.1724,2.1733,2.1749,2.1753,2.1759,2.1776,2.178,2.1791,2.1801,2.1808,2.1819,2.1826,2.1836,2.184,2.1842,2.1853,2.185,2.1854,2.1863,2.1864,2.186,2.1843,2.1837,2.1829,2.185,2.185,2.185,0,2.1711,2.1722,2.1727,2.1745,2.1748,2.1751,2.1764,2.177,2.1783,2.179,2.1798,2.181,2.1816,2.1824,2.1832,2.1834,2.1839,2.1845,2.1845,2.1847,2.1856,2.1845,2.1827,2.1826,2.1849,2.1849,2.1849,0,2.1689,2.1705,2.171,2.1716,2.1738,2.174,2.1749,2.1762,2.1768,2.1779,2.1783,2.1794,2.1799,2.1807,2.1822,2.1826,2.1828,2.1838,2.1835,2.1834,2.1834,2.1834,2.1817,2.1836,2.1837,2.1837,2.1837,0,2.1674,2.1677,2.1701,2.1704,2.1708,2.1726,2.1729,2.1739,2.1751,2.1757,2.1772,2.1777,2.1796,2.1803,2.1814,2.1819,2.1821,2.1828,2.1831,2.1827,2.1826,2.183,2.1831,2.1836,2.1836,2.1836,2.1836,0,2.1651,2.1667,2.1674,2.1695,2.17,2.1702,2.1719,2.1723,2.1735,2.1742,2.1744,2.1762,2.1772,2.1787,2.18,2.1808,2.1811,2.1816,2.1807,2.1809,2.1806,2.1806,2.1791,2.179,2.181,2.1809,2.1809,0,2.164,2.1643,2.1664,2.1669,2.1678,2.1686,2.1693,2.1711,2.1717,2.1734,2.1736,2.1747,2.1756,2.177,2.1784,2.1795,2.18,2.1794,2.1802,2.1798,2.1801,2.1801,2.1802,2.1792,2.1792,2.1792,2.1792,0,2.162,2.1629,2.1638,2.1651,2.1659,2.167,2.1682,2.1685,2.1705,2.1712,2.1722,2.173,2.1744,2.1755,2.1768,2.1777,2.1788,2.1789,2.1789,2.1785,2.1781,2.1784,2.1803,2.1789,2.179,2.179,2.179,2.179,2.1603,2.1607,2.1623,2.1634,2.1645,2.1655,2.1661,2.1674,2.1683,2.1697,2.1707,2.1717,2.1731,2.1749,2.1758,2.1766,2.1771,2.177,2.177,2.177,2.1769,2.1779,2.1768,2.1768,2.1768,2.1768,2.1768,0,2.1585,2.1597,2.1606,2.1623,2.1631,2.1642,2.1656,2.1662,2.1671,2.1684,2.1693,2.1706,2.1717,2.1732,2.1744,2.1747,2.1753,2.175,2.175,2.1752,2.1764,2.1763,2.1746,2.1746,2.1746,2.1746,2.1746,2.1746,2.1576,2.1584,2.1594,2.1607,2.1619,2.163,2.1637,2.1647,2.1657,2.1671,2.168,2.1691,2.1705,2.1718,2.1729,2.1733,2.1737,2.1733,2.1739,2.1749,2.1751,2.1753,2.1753,2.1733,2.1733,2.1727,2.1727,2.1727]}]]